Location: Dillon
(41.1766°N, 107.0923°W)
Time: 20:57:20
(UTC+00:00)

RS-44 - Pass Details

Date: 30 June 2022
Orbit: 1175 x 1510 km, 82.5° (Epoch: 13 August)

Event Time Altitude Azimuth Distance (km) Brightness Sun altitude
Rises 04:05:43 0° 197° (SSW) 4,283 ? -12.5°
Reaches altitude 10° 04:08:25 10° 201° (SSW) 3,359 ? -12.9°
Maximum altitude 04:16:23 64° 282° (WNW) 1,541 ? -13.9°
Drops below altitude 10° 04:24:59 10° 3° (N) 3,610 ? -14.9°
Sets 04:28:00 0° 6° (N) 4,621 ? -15.3°
